Weather History for Woodward, OK

Change the Weather History Date:

Sunday, November 25, 2012

  Actual Average (KGAG) Record (KGAG)
Temperature  
Mean Temperature 47 °F -  
Max Temperature 62 °F 55 °F 82 °F (1981)
Min Temperature 32 °F 30 °F 10 °F (1975)
Degree Days  
Heating Degree Days 18    
Moisture  
Dew Point 28 °F    
Average Humidity 51    
Maximum Humidity 87    
Minimum Humidity 26    
Precipitation  
Precipitation 0.00 in - - ()
Sea Level Pressure  
Sea Level Pressure 29.89 in    
Wind  
Wind Speed 9 mph (NNE)    
Max Wind Speed 14 mph    
Max Gust Speed 22 mph    
Visibility 8 miles    
Events      
Averages and records for this station are not official NWS values.
T = Trace of Precipitation, MM = Missing Value Source: NWS Daily Summary

Daily Weather History Graph

Daily Weather History Graph

Search for Another Location

Airport:

Trip Planner

Search our weather history database for the weather conditions in past years. The results will help you decide how hot, cold, wet, or windy it might be!

Date:

Astronomy

Nov. 25, 2012 Rise Set
Actual Time 7:26 AM CST 5:24 PM CST
Civil Twilight 6:58 AM CST 5:52 PM CST
Nautical Twilight 6:26 AM CST 6:23 PM CST
Astronomical Twilight 5:55 AM CST 6:54 PM CST
Moon 3:39 PM CST (11/25) 4:44 AM CST (11/25)
Length of Visible Light 10h 54m
Length of Day
9h 58m
Waxing Gibbous, 93% of the Moon is Illuminated
Nov 25
Waxing Gibbous
Nov 28
Full
Dec 6
Last Quarter
Dec 13
New
Dec 19
First Quarter

Hourly Weather History & Observations

Time (CST) Temp. Windchill Dew Point Humidity Pressure Visibility Wind Dir Wind Speed Gust Speed Precip Events Conditions
12:15 AM 50.0 °F - 28.4 °F 43% 29.91 in 10.0 mi SSW 13.8 mph 21.9 mph N/A   Clear
12:35 AM 50.0 °F - 28.4 °F 43% 29.91 in 10.0 mi SSW 12.7 mph - N/A   Clear
12:55 AM 48.2 °F - 28.4 °F 46% 29.90 in 10.0 mi SW 9.2 mph 13.8 mph N/A   Clear
1:15 AM 46.4 °F 41.1 °F 28.4 °F 50% 29.89 in 10.0 mi SW 11.5 mph - N/A   Clear
1:35 AM 44.6 °F 38.4 °F 28.4 °F 53% 29.88 in 10.0 mi SSW 12.7 mph - N/A   Clear
1:55 AM 44.6 °F 38.4 °F 28.4 °F 53% 29.88 in 10.0 mi SSW 12.7 mph - N/A   Clear
2:15 AM 44.6 °F 38.8 °F 30.2 °F 57% 29.88 in 10.0 mi SW 11.5 mph - N/A   Clear
2:35 AM 42.8 °F 37.0 °F 30.2 °F 61% 29.88 in 10.0 mi SSW 10.4 mph - N/A   Clear
2:55 AM 42.8 °F 38.0 °F 30.2 °F 61% 29.88 in 10.0 mi SW 8.1 mph - N/A   Clear
3:15 AM 41.0 °F 34.7 °F 30.2 °F 65% 29.88 in 10.0 mi SW 10.4 mph - N/A   Clear
3:35 AM 39.2 °F 32.0 °F 28.4 °F 65% 29.87 in 10.0 mi SW 11.5 mph - N/A   Clear
3:55 AM 39.2 °F 32.0 °F 30.2 °F 70% 29.87 in 10.0 mi SW 11.5 mph - N/A   Clear
4:15 AM 39.2 °F 32.5 °F 30.2 °F 70% 29.87 in 10.0 mi SW 10.4 mph - N/A   Clear
4:35 AM 39.2 °F 33.6 °F 30.2 °F 70% 29.86 in 10.0 mi SW 8.1 mph - N/A   Clear
4:55 AM 37.4 °F 30.8 °F 28.4 °F 70% 29.87 in 10.0 mi SW 9.2 mph - N/A   Clear
5:35 AM 35.6 °F 31.7 °F 28.4 °F 75% 29.88 in 10.0 mi West 4.6 mph - N/A   Clear
5:55 AM 32.0 °F 24.8 °F 26.6 °F 80% 29.88 in 10.0 mi West 8.1 mph - N/A   Clear
6:15 AM 32.0 °F 25.6 °F 28.4 °F 87% 29.88 in 10.0 mi West 6.9 mph - N/A   Clear
6:35 AM 32.0 °F 26.4 °F 26.6 °F 80% 29.89 in 10.0 mi WNW 5.8 mph - N/A   Clear
6:55 AM 32.0 °F 27.5 °F 26.6 °F 80% 29.89 in 10.0 mi West 4.6 mph - N/A   Clear
7:15 AM 32.0 °F 26.4 °F 26.6 °F 80% 29.89 in 10.0 mi West 5.8 mph - N/A   Clear
7:35 AM 32.0 °F 25.6 °F 26.6 °F 80% 29.89 in 10.0 mi West 6.9 mph - N/A   Clear
7:55 AM 33.8 °F 27.7 °F 28.4 °F 81% 29.91 in 10.0 mi West 6.9 mph - N/A   Clear
8:15 AM 35.6 °F 29.9 °F 26.6 °F 70% 29.91 in 10.0 mi West 6.9 mph - N/A   Clear
8:35 AM 37.4 °F 32.1 °F 26.6 °F 65% 29.92 in 10.0 mi West 6.9 mph - N/A   Clear
8:55 AM 37.4 °F 32.1 °F 26.6 °F 65% 29.92 in 10.0 mi West 6.9 mph - N/A   Clear
9:15 AM 41.0 °F 36.4 °F 26.6 °F 57% 29.93 in 10.0 mi WNW 6.9 mph - N/A   Clear
9:35 AM 42.8 °F 38.6 °F 26.6 °F 53% 29.92 in 10.0 mi NW 6.9 mph - N/A   Clear
9:55 AM 44.6 °F 39.7 °F 26.6 °F 49% 29.92 in 10.0 mi NNW 9.2 mph - N/A   Clear
10:15 AM 46.4 °F 42.9 °F 26.6 °F 46% 29.93 in 10.0 mi North 6.9 mph - N/A   Clear
10:35 AM 50.0 °F - 26.6 °F 40% 29.92 in 10.0 mi North 8.1 mph - N/A   Clear
10:55 AM 51.8 °F - 24.8 °F 35% 29.92 in 10.0 mi North 8.1 mph - N/A   Clear
11:15 AM 53.6 °F - 26.6 °F 35% 29.91 in 10.0 mi North 5.8 mph - N/A   Clear
11:35 AM 55.4 °F - 26.6 °F 33% 29.91 in 10.0 mi North 6.9 mph - N/A   Clear
11:55 AM 55.4 °F - 26.6 °F 33% 29.90 in 10.0 mi North 8.1 mph - N/A   Clear
12:15 PM 57.2 °F - 26.6 °F 31% 29.89 in 10.0 mi NNE 6.9 mph - N/A   Clear
12:35 PM 59.0 °F - 26.6 °F 29% 29.88 in 10.0 mi NNE 4.6 mph - N/A   Clear
12:55 PM 59.0 °F - 26.6 °F 29% 29.88 in 10.0 mi NE 5.8 mph - N/A   Clear
1:15 PM 60.8 °F - 26.6 °F 27% 29.87 in 10.0 mi North 4.6 mph - N/A   Clear
1:35 PM 60.8 °F - 26.6 °F 27% 29.86 in 10.0 mi NE 3.5 mph - N/A   Clear
1:55 PM 60.8 °F - 26.6 °F 27% 29.86 in 10.0 mi North 4.6 mph - N/A   Clear
2:15 PM 62.6 °F - 26.6 °F 26% 29.86 in 10.0 mi NE 4.6 mph - N/A   Clear
2:35 PM 62.6 °F - 26.6 °F 26% 29.86 in 10.0 mi NE 3.5 mph - N/A   Clear
2:55 PM 62.6 °F - 26.6 °F 26% 29.86 in 10.0 mi North 4.6 mph - N/A   Clear
3:15 PM 62.6 °F - 26.6 °F 26% 29.85 in 10.0 mi NNE 6.9 mph - N/A   Clear
3:35 PM 62.6 °F - 26.6 °F 26% 29.85 in 10.0 mi NE 5.8 mph - N/A   Clear
3:55 PM 62.6 °F - 26.6 °F 26% 29.86 in 10.0 mi ENE 8.1 mph - N/A   Clear
4:15 PM 62.6 °F - 26.6 °F 26% 29.86 in 10.0 mi ENE 5.8 mph - N/A   Clear
4:35 PM 60.8 °F - 26.6 °F 27% 29.86 in 10.0 mi ENE 8.1 mph - N/A   Clear
4:55 PM 59.0 °F - 26.6 °F 29% 29.86 in 10.0 mi East 6.9 mph - N/A   Clear
5:15 PM 55.4 °F - 26.6 °F 33% 29.86 in 10.0 mi ENE 6.9 mph - N/A   Clear
5:35 PM 53.6 °F - 26.6 °F 35% 29.86 in 10.0 mi East 5.8 mph - N/A   Clear
5:55 PM 51.8 °F - 26.6 °F 38% 29.87 in 10.0 mi East 5.8 mph - N/A   Clear
6:15 PM 50.0 °F - 26.6 °F 40% 29.87 in 10.0 mi East 4.6 mph - N/A   Clear
6:35 PM 48.2 °F - 28.4 °F 46% 29.88 in 1.5 mi East 4.6 mph - N/A   Haze
6:55 PM 46.4 °F 42.9 °F 28.4 °F 50% 29.88 in 1.5 mi East 6.9 mph - N/A   Haze
7:15 PM 48.2 °F - 28.4 °F 46% 29.88 in 1.2 mi East 6.9 mph - N/A   Haze
7:35 PM 46.4 °F 44.3 °F 28.4 °F 50% 29.89 in 1.2 mi East 4.6 mph - N/A   Haze
7:55 PM 44.6 °F 41.4 °F 28.4 °F 53% 29.89 in 1.5 mi East 5.8 mph - N/A   Haze
8:15 PM 44.6 °F 41.4 °F 28.4 °F 53% 29.90 in 1.0 mi East 5.8 mph - N/A   Haze
8:35 PM 44.6 °F 42.2 °F 28.4 °F 53% 29.90 in 1.2 mi ENE 4.6 mph - N/A   Haze
8:55 PM 44.6 °F 41.4 °F 30.2 °F 57% 29.90 in 1.2 mi ENE 5.8 mph - N/A   Haze
9:15 PM 42.8 °F 40.1 °F 30.2 °F 61% 29.91 in 1.2 mi East 4.6 mph - N/A   Haze
9:35 PM 42.8 °F 40.1 °F 30.2 °F 61% 29.91 in 1.0 mi ENE 4.6 mph - N/A   Haze
9:55 PM 42.8 °F 39.3 °F 30.2 °F 61% 29.92 in 1.0 mi ENE 5.8 mph - N/A   Haze
10:15 PM 42.8 °F 38.6 °F 30.2 °F 61% 29.92 in 1.2 mi ENE 6.9 mph - N/A   Haze
10:35 PM 42.8 °F 38.6 °F 30.2 °F 61% 29.92 in 1.8 mi ENE 6.9 mph - N/A   Haze
10:55 PM 42.8 °F 38.0 °F 30.2 °F 61% 29.92 in 10.0 mi ENE 8.1 mph - N/A   Clear
11:15 PM 41.0 °F 36.4 °F 30.2 °F 65% 29.92 in 10.0 mi ENE 6.9 mph - N/A   Clear
11:35 PM 42.8 °F 38.6 °F 30.2 °F 61% 29.92 in 10.0 mi ENE 6.9 mph - N/A   Clear
11:55 PM 41.0 °F 37.1 °F 30.2 °F 65% 29.91 in 10.0 mi ENE 5.8 mph - N/A   Clear